When you browse on this site, cookies collect data to enhance your experience and personalize the content and advertising you see.
Visit our Privacy Policy to learn more. By continuing to use the site, you agree to this use of cookies and data.
  • In Czech Republic
  • List of Countries
  • For 7 days
  • Water Temperature
  • Satellite Maps
  • Weather Map
  • Weather Widgets
  • user-avatar
    Login

    Hourly Weather Thimphu

    Today, 22 January, Tuesday

    Time Temperature Precipitation Wind Pressure Humidity
    00:00 -1°C° 0 mm 1 mps 521 mmHg 84%
    01:00 -1°C° 0 mm 1 mps 521 mmHg 83%
    02:00 -1°C° 0 mm 1 mps 521 mmHg 81%
    03:00 -1°C° 0 mm 1 mps 521 mmHg 79%
    04:00 -2°C° 0 mm 1 mps 521 mmHg 76%
    05:00 -2°C° 0 mm 1 mps 521 mmHg 72%
    06:00 -5°C° 0 mm 2 mps 521 mmHg 66%
    07:00 0°C° 0 mm 1 mps 523 mmHg 55%
    08:00 +3°C° 0 mm 1 mps 525 mmHg 43%
    09:00 +6°C° 0 mm 1 mps 527 mmHg 32%
    10:00 +7°C° 0 mm 1 mps 527 mmHg 32%
    11:00 +7°C° 0 mm 2 mps 527 mmHg 33%
    12:00 +8°C° 0 mm 3 mps 527 mmHg 34%
    13:00 +7°C° 0 mm 3 mps 527 mmHg 38%
    14:00 +7°C° 0 mm 3 mps 526 mmHg 42%
    15:00 +7°C° 0 mm 3 mps 525 mmHg 46%
    16:00 +4°C° 0.1 mm 2 mps 524 mmHg 58%
    17:00 +2°C° 0.1 mm 2 mps 523 mmHg 70%
    18:00 +1°C° 0.1 mm 1 mps 522 mmHg 82%
    19:00 0°C° 0 mm 1 mps 522 mmHg 82%
    20:00 0°C° 0 mm 1 mps 522 mmHg 82%
    21:00 -1°C° 0 mm 1 mps 522 mmHg 82%
    22:00 -1°C° 0 mm 1 mps 522 mmHg 79%
    23:00 -1°C° 0 mm 1 mps 521 mmHg 75%

    Tomorrow, 23 January, Wednesday

    Time Temperature Precipitation Wind Pressure Humidity
    00:00 -1°C° 0 mm 1 mps 521 mmHg 71%
    01:00 -1°C° 0 mm 1 mps 521 mmHg 68%
    02:00 -2°C° 0 mm 1 mps 521 mmHg 65%
    03:00 -2°C° 0 mm 1 mps 521 mmHg 61%
    04:00 -2°C° 0 mm 1 mps 521 mmHg 59%
    05:00 -2°C° 0 mm 1 mps 521 mmHg 57%
    06:00 -2°C° 0 mm 1 mps 521 mmHg 55%
    07:00 0°C° 0 mm 1 mps 523 mmHg 49%
    08:00 +3°C° 0 mm 1 mps 524 mmHg 43%
    09:00 +5°C° 0 mm 1 mps 526 mmHg 37%
    10:00 +6°C° 0.1 mm 1 mps 526 mmHg 39%
    11:00 +7°C° 0.1 mm 1 mps 526 mmHg 40%
    12:00 +6°C° 0.1 mm 2 mps 526 mmHg 41%
    13:00 +6°C° 0.3 mm 2 mps 525 mmHg 47%
    14:00 +5°C° 0.3 mm 2 mps 524 mmHg 52%
    15:00 +5°C° 0.3 mm 2 mps 523 mmHg 58%
    16:00 +3°C° 0.4 mm 2 mps 523 mmHg 66%
    17:00 +2°C° 0.4 mm 2 mps 522 mmHg 74%
    18:00 +2°C° 0.4 mm 1 mps 521 mmHg 82%
    19:00 +1°C° 0.2 mm 1 mps 522 mmHg 82%
    20:00 +1°C° 0.2 mm 1 mps 522 mmHg 82%
    21:00 +1°C° 0.2 mm 1 mps 522 mmHg 82%
    22:00 +1°C° 0.4 mm 1 mps 522 mmHg 82%
    23:00 +1°C° 0.4 mm 1 mps 522 mmHg 83%

    Day after tomorrow, 24 January, Thursday

    Time Temperature Precipitation Wind Pressure Humidity
    00:00 +1°C° 0.4 mm 1 mps 522 mmHg 83%
    01:00 0°C° 0.2 mm 1 mps 522 mmHg 83%
    02:00 0°C° 0.2 mm 1 mps 522 mmHg 83%
    03:00 0°C° 0.2 mm 1 mps 522 mmHg 83%
    04:00 -1°C° 0 mm 1 mps 521 mmHg 82%
    05:00 -1°C° 0 mm 1 mps 521 mmHg 82%
    06:00 -2°C° 0 mm 1 mps 521 mmHg 81%
    07:00 0°C° 0 mm 1 mps 523 mmHg 72%
    08:00 +2°C° 0 mm 1 mps 524 mmHg 63%
    09:00 +5°C° 0 mm 1 mps 526 mmHg 54%
    10:00 +6°C° 0 mm 1 mps 527 mmHg 51%
    11:00 +6°C° 0 mm 2 mps 527 mmHg 48%
    12:00 +7°C° 0 mm 2 mps 527 mmHg 45%
    13:00 +7°C° 0.1 mm 2 mps 527 mmHg 47%
    14:00 +7°C° 0.1 mm 2 mps 526 mmHg 49%
    15:00 +7°C° 0.1 mm 2 mps 526 mmHg 51%
    16:00 +4°C° 0 mm 2 mps 524 mmHg 61%
    17:00 +2°C° 0 mm 2 mps 523 mmHg 72%
    18:00 0°C° 0 mm 1 mps 522 mmHg 83%
    19:00 0°C° 0 mm 1 mps 522 mmHg 79%
    20:00 -1°C° 0 mm 1 mps 522 mmHg 76%
    21:00 -1°C° 0 mm 1 mps 523 mmHg 72%
    22:00 -4°C° 0 mm 2 mps 522 mmHg 69%
    23:00 -4°C° 0 mm 2 mps 522 mmHg 66%

    25 January, Friday

    Time Temperature Precipitation Wind Pressure Humidity
    00:00 -4°C° 0 mm 2 mps 522 mmHg 63%
    01:00 -4°C° 0 mm 2 mps 522 mmHg 62%
    02:00 -5°C° 0 mm 2 mps 521 mmHg 60%
    03:00 -5°C° 0 mm 2 mps 521 mmHg 58%
    04:00 -4°C° 0 mm 2 mps 521 mmHg 56%
    05:00 -1°C° 0 mm 1 mps 522 mmHg 54%
    06:00 -1°C° 0 mm 1 mps 522 mmHg 52%
    07:00 +1°C° 0.1 mm 1 mps 523 mmHg 49%
    08:00 +2°C° 0.1 mm 1 mps 525 mmHg 45%
    09:00 +4°C° 0.1 mm 1 mps 526 mmHg 41%
    10:00 +4°C° 0.1 mm 1 mps 526 mmHg 43%
    11:00 +5°C° 0.1 mm 1 mps 526 mmHg 45%
    12:00 +6°C° 0.1 mm 1 mps 526 mmHg 47%
    13:00 +5°C° 0.4 mm 1 mps 525 mmHg 53%
    14:00 +4°C° 0.4 mm 1 mps 524 mmHg 59%
    15:00 +4°C° 0.4 mm 1 mps 523 mmHg 64%
    16:00 +3°C° 0.8 mm 1 mps 523 mmHg 71%
    17:00 +2°C° 0.8 mm 1 mps 523 mmHg 78%
    18:00 +1°C° 0.8 mm 1 mps 522 mmHg 84%
    19:00 0°C° 0.8 mm 1 mps 523 mmHg 85%
    20:00 0°C° 0.8 mm 1 mps 523 mmHg 85%
    21:00 0°C° 0.8 mm 1 mps 523 mmHg 85%
    22:00 0°C° 0.8 mm 1 mps 523 mmHg 86%
    23:00 0°C° 0.8 mm 1 mps 523 mmHg 86%

    26 January, Saturday

    Time Temperature Precipitation Wind Pressure Humidity
    00:00 0°C° 0.8 mm 1 mps 523 mmHg 87%
    01:00 0°C° 0.9 mm 1 mps 522 mmHg 87%
    02:00 0°C° 0.9 mm 1 mps 522 mmHg 86%
    03:00 -1°C° 0.9 mm 1 mps 521 mmHg 86%
    04:00 -1°C° 1.3 mm 1 mps 521 mmHg 87%
    05:00 -1°C° 1.3 mm 1 mps 521 mmHg 88%
    06:00 -1°C° 1.3 mm 1 mps 521 mmHg 89%
    07:00 0°C° 1.7 mm 1 mps 522 mmHg 89%
    08:00 0°C° 1.7 mm 1 mps 522 mmHg 88%
    09:00 0°C° 1.7 mm 1 mps 523 mmHg 88%
    10:00 +1°C° 2 mm 1 mps 523 mmHg 89%
    11:00 +1°C° 2 mm 1 mps 523 mmHg 90%
    12:00 +2°C° 2 mm 1 mps 524 mmHg 91%
    13:00 +2°C° 1.7 mm 1 mps 523 mmHg 91%
    14:00 +2°C° 1.7 mm 1 mps 523 mmHg 91%
    15:00 +2°C° 1.7 mm 1 mps 522 mmHg 90%
    16:00 +2°C° 0.9 mm 1 mps 523 mmHg 91%
    17:00 +1°C° 0.9 mm 1 mps 523 mmHg 91%
    18:00 +1°C° 0.9 mm 1 mps 523 mmHg 91%
    19:00 0°C° 0.4 mm 1 mps 523 mmHg 91%
    20:00 0°C° 0.4 mm 1 mps 523 mmHg 91%
    21:00 0°C° 0.4 mm 1 mps 524 mmHg 90%
    22:00 0°C° 0.4 mm 1 mps 523 mmHg 90%
    23:00 -1°C° 0.4 mm 1 mps 523 mmHg 90%

    27 January, Sunday

    Time Temperature Precipitation Wind Pressure Humidity
    00:00 -1°C° 0.4 mm 1 mps 523 mmHg 89%
    01:00 -2°C° 0.1 mm 1 mps 522 mmHg 87%
    02:00 -3°C° 0.1 mm 1 mps 521 mmHg 85%
    03:00 -4°C° 0.1 mm 1 mps 521 mmHg 84%
    04:00 -6°C° 0 mm 2 mps 521 mmHg 82%
    05:00 -6°C° 0 mm 2 mps 521 mmHg 81%
    06:00 -7°C° 0 mm 2 mps 521 mmHg 80%
    07:00 -5°C° 0 mm 2 mps 523 mmHg 78%
    08:00 0°C° 0 mm 1 mps 524 mmHg 77%
    09:00 +2°C° 0 mm 1 mps 526 mmHg 75%
    10:00 +3°C° 0 mm 1 mps 526 mmHg 76%
    11:00 +4°C° 0 mm 1 mps 526 mmHg 76%
    12:00 +4°C° 0 mm 2 mps 526 mmHg 76%
    13:00 +4°C° 0.1 mm 2 mps 525 mmHg 77%
    14:00 +3°C° 0.1 mm 2 mps 525 mmHg 77%
    15:00 +3°C° 0.1 mm 2 mps 524 mmHg 78%
    16:00 +1°C° 0.1 mm 2 mps 523 mmHg 80%
    17:00 0°C° 0.1 mm 1 mps 522 mmHg 82%
    18:00 -2°C° 0.1 mm 1 mps 521 mmHg 84%
    19:00 -3°C° 0 mm 1 mps 521 mmHg 82%
    20:00 -4°C° 0 mm 1 mps 521 mmHg 79%
    21:00 -6°C° 0 mm 2 mps 521 mmHg 77%
    22:00 -7°C° 0 mm 2 mps 521 mmHg 77%
    23:00 -7°C° 0 mm 2 mps 521 mmHg 76%
    Show more